Temperature
11 11 11 11 11 11 11 11 11 11 11 11 11 11 11 11 11 11 12 12 12 12 11 11 11 11 11 11 11 11 11 11 11 11 11 11 11 11 11 11 11 11 11
10 10 11 11 10 10 11 11 11 11 11 11 11 11 11 11 11 11 11 11 11 11 11 11 11 11 11 11 11 11 11 11 11 11 11 11 11 11 10 10 10 10 10
10 10 10 10 10 10 10 10 10 10 10 10 10 10 10 10 10 11 11 11 11 11 11 11 11 10 10 10 10 10 10 10 10 10 10 10 10 10 10 10 10 10 9
10 10 10 10 10 10 10 10 10 10 10 10 10 10 10 10 10 10 10 10 10 10 10 10 10 10 10 10 10 10 10 10 10 10 10 10 10 10 10 9 9 9 9
9 9 9 9 9 9 9 9 9 10 9 9 9 9 9 9 10 10 10 10 10 10 10 10 10 10 10 9 9 9 9 9 9 9 9 9 9 9 9 9 9 9 9
9 9 9 9 9 9 9 9 9 9 9 9 9 9 9 9 9 9 9 9 9 9 9 9 9 9 9 9 9 9 9 9 9 9 9 9 9 9 9 9 8 8 8
8 8 8 9 9 9 9 9 9 9 9 9 8 8 8 8 9 9 9 9 9 9 9 9 9 9 9 9 9 9 9 9 9 9 9 9 9 9 8 8 8 8 8
8 8 8 8 8 8 8 8 8 8 8 8 8 8 7 7 8 8 8 8 8 9 9 9 9 9 8 9 9 8 8 8 8 8 8 8 8 8 8 8 7 7 7
8 8 7 8 8 8 7 8 8 8 8 8 8 8 7 7 7 7 7 8 8 8 8 8 8 8 8 8 8 8 8 8 8 8 8 8 8 8 7 7 7 7 7
7 7 7 7 7 7 7 7 7 8 8 8 7 7 8 8 7 7 7 7 7 8 8 8 8 8 8 8 8 8 8 8 8 7 7 7 7 7 7 7 7 7 7
7 7 7 7 7 7 7 7 7 7 7 7 7 7 7 7 7 7 6 7 7 7 7 7 7 7 7 7 7 7 7 7 7 7 7 7 7 7 7 7 7 7 6
6 6 6 6 6 6 7 7 7 7 7 7 7 7 7 7 7 7 7 7 7 7 7 7 7 7 7 7 7 7 7 7 7 7 7 6 6 6 6 6 6 6 6
6 6 6 6 6 6 6 6 6 6 7 7 7 7 7 7 7 7 7 7 6 6 6 6 6 6 6 6 6 6 6 6 6 6 6 6 6 6 6 6 6 6 6
5 6 6 6 6 6 6 6 6 6 6 6 6 6 6 6 6 6 6 6 6 6 6 6 6 6 6 6 6 6 6 6 6 6 6 6 6 6 6 6 6 6 5
5 5 5 5 5 5 5 6 6 6 6 6 6 6 6 6 6 6 6 6 6 6 6 6 6 6 6 6 6 5 5 5 5 5 5 5 5 5 5 5 5 5 5
5 5 5 5 5 5 5 5 5 5 5 5 5 5 5 5 5 5 5 5 5 5 5 6 6 6 5 5 5 5 5 5 5 5 5 5 5 5 5 5 5 4 4
4 4 4 5 4 4 5 5 5 5 5 5 5 5 5 5 5 5 5 5 5 5 5 5 5 5 5 5 5 5 4 4 4 4 4 4 4 4 4 4 4 4 4
4 4 4 4 4 4 4 4 4 4 4 4 4 4 4 4 4 4 4 4 4 4 4 4 5 4 4 4 4 4 4 4 4 4 4 4 4 4 4 4 3 3 3
3 4 4 4 4 4 4 4 4 4 4 4 4 4 4 4 4 4 4 4 4 4 4 4 4 4 4 4 4 4 4 3 3 3 3 3 3 3 3 3 3 3 2
3 3 3 3 3 3 3 3 3 3 3 3 3 3 3 3 3 3 3 3 3 3 3 3 3 3 3 3 3 3 3 3 3 3 3 3 3 2 2 2 2 2 2
3 3 3 3 3 3 3 3 3 3 3 3 3 3 3 3 3 3 3 3 3 3 3 3 3 3 3 3 3 3 2 2 2 2 2 2 2 2 2 2 2 2 2
2 2 2 2 2 2 2 2 2 2 2 2 2 2 2 2 2 2 2 2 2 2 2 2 2 2 2 2 2 2 2 2 1 2 2 2 1 1 2 1 1 1 1
1 2 2 2 1 2 2 2 2 2 2 2 2 2 2 2 2 2 2 2 2 2 2 2 2 2 2 2 2 1 1 1 1 1 1 1 1 1 1 1 1 1 1
1 1 1 1 1 1 1 1 1 1 1 1 1 1 1 1 1 1 1 1 1 1 1 1 1 1 1 1 1 1 1 0 0 0 0 0 0 0 1 0 0 0 -0
0 0 0 0 0 0 1 0 0 0 0 0 1 1 0 1 1 1 1 1 1 1 1 1 0 0 0 0 0 -0 -0 -0 -0 -0 -0 -1 -0 -1 -0 -0 -0 -0 -1
-0 -0 -0 -0 -0 -0 -0 -0 -0 -0 -0 -0 -0 -0 0 0 0 -0 -0 -0 0 0 0 -0 -0 -0 -0 -0 -1 -1 -1 -1 -1 -1 -1 -1 -1 -2 -2 -1 -1 -1 -1
Wind_Speed
2 2 2 3 3 3 4 3 3 4 4 4 5 5 5 6 5 5 6 7 8 8 8 9 9 9 10 10 10 11 10 10 10 10 10 10 10 10 10 10 11 11 11
3 2 2 2 2 3 4 4 4 4 3 4 4 5 5 6 6 6 6 6 7 8 8 8 9 9 10 10 9 10 10 10 10 10 10 9 10 10 10 10 10 10 10
4 3 2 2 2 4 5 4 4 4 3 4 4 4 5 5 5 5 6 6 6 7 8 9 9 9 8 8 9 9 9 9 9 9 9 9 9 10 10 10 9 9 8
6 4 2 2 3 4 5 3 3 3 3 3 3 2 3 4 4 5 5 6 5 5 6 7 8 8 8 8 8 8 8 9 9 9 8 8 8 9 9 9 9 8 7
6 5 3 3 4 3 3 3 2 3 3 3 3 2 2 3 3 4 5 5 5 5 5 5 6 6 7 8 8 8 8 8 8 8 8 8 8 8 9 9 8 8 7
5 5 3 3 4 3 3 3 3 3 3 4 4 3 2 2 2 3 3 4 4 4 5 4 5 5 6 7 8 8 8 8 8 8 9 8 8 8 9 9 8 8 7
4 4 3 3 3 3 3 4 3 3 2 3 3 3 3 3 2 2 2 3 3 4 4 4 4 4 4 6 8 8 8 8 8 9 9 8 8 8 8 9 9 8 7
4 4 3 3 3 3 4 4 4 2 2 2 3 3 1 1 2 2 0 1 1 3 3 4 4 5 4 5 5 7 8 8 8 8 9 8 8 8 8 8 9 8 7
3 3 3 3 2 3 4 4 4 4 3 2 2 3 3 3 1 1 0 1 1 1 2 3 4 5 5 6 6 7 8 8 9 8 9 9 9 8 7 8 8 9 8
2 2 2 3 3 3 3 4 3 3 5 4 2 1 1 3 3 1 1 1 1 2 2 2 3 5 6 6 6 6 7 9 9 9 9 9 9 9 9 8 9 9 9
1 2 2 2 2 3 3 4 3 3 3 4 3 2 1 1 1 2 2 2 2 2 2 3 4 5 6 7 7 8 8 8 8 9 9 8 8 8 8 7 8 8 8
1 1 2 2 2 2 3 4 4 4 4 3 2 2 2 2 2 2 2 2 3 3 2 3 4 5 7 8 8 8 9 9 9 9 9 9 7 7 8 8 8 8 8
1 2 2 2 2 2 3 3 4 4 4 4 4 3 2 2 2 2 2 2 2 2 2 2 4 6 7 8 8 9 9 10 10 10 10 10 8 7 6 7 8 8 9
2 2 2 2 2 2 3 3 2 3 3 3 4 4 3 3 2 2 3 3 1 2 3 4 2 6 7 8 9 9 9 10 10 10 10 9 8 7 6 6 7 8 7
1 1 1 2 2 2 2 3 3 3 3 3 4 4 3 3 3 2 3 3 4 4 5 5 4 4 7 8 9 9 9 9 9 9 9 7 7 7 7 6 6 6 7
0 1 1 2 2 2 2 3 3 3 3 3 3 3 3 2 2 2 3 3 3 4 4 4 4 3 4 6 9 9 9 9 9 9 9 8 8 8 8 8 7 7 8
1 1 2 2 3 3 3 3 4 3 4 3 3 4 4 3 3 3 2 2 2 2 4 3 2 1 3 4 5 7 8 9 9 9 10 9 9 9 9 9 9 9 9
1 2 1 2 2 2 3 4 4 4 5 4 4 4 4 3 4 3 3 3 3 3 3 4 2 2 3 4 4 4 5 7 8 9 9 9 9 9 9 9 9 9 10
1 1 1 2 2 2 3 3 3 4 4 5 4 5 5 4 4 3 3 4 3 2 2 3 3 2 2 2 2 2 3 4 6 7 7 8 8 9 9 9 10 10 10
1 1 1 1 1 1 2 2 3 3 3 3 3 4 4 5 5 5 4 4 3 3 2 2 2 2 2 1 1 2 2 2 3 4 6 7 7 8 9 10 11 11 11
0 0 1 1 1 1 1 2 3 3 3 3 3 3 3 4 5 5 4 4 4 3 3 2 2 2 2 2 3 2 3 2 2 3 2 4 5 6 8 9 10 11 11
1 0 1 1 1 1 1 2 2 2 3 3 3 3 3 4 4 5 5 6 6 5 5 4 3 4 4 4 3 3 2 1 3 2 2 3 3 4 7 9 10 11 11
1 1 1 1 2 2 1 1 2 1 2 2 3 2 2 2 2 3 3 4 4 6 6 6 5 5 5 5 4 4 4 4 4 3 2 4 2 4 7 9 11 12 12
1 1 1 1 2 2 2 1 2 2 2 2 2 3 3 3 3 3 3 3 3 4 5 4 5 6 5 5 6 6 5 3 2 2 3 4 3 3 4 8 11 12 12
1 1 1 1 1 3 2 2 2 2 2 2 2 2 3 3 3 3 3 3 3 4 5 5 6 5 6 6 5 3 2 2 3 3 2 3 2 2 3 4 8 10 10
1 1 1 1 2 3 3 2 2 2 2 2 2 2 3 3 3 3 3 4 5 4 3 3 3 4 4 5 6 5 5 4 3 3 3 3 2 1 3 3 4 6 7
Wind_Direction
133 131 138 135 134 138 134 125 120 117 114 115 116 120 123 120 121 122 132 139 144 150 153 151 147 148 149 147 147 146 144 144 143 141 140 139 137 133 128 125 119 114 109
146 142 129 132 138 145 147 141 133 119 109 105 98 107 117 116 114 115 120 131 141 148 157 157 152 151 148 148 145 147 149 149 149 146 145 145 145 141 136 129 123 119 115
151 148 139 142 152 147 135 124 115 108 105 96 89 93 107 108 112 115 116 119 128 143 150 152 151 152 153 154 153 153 154 153 152 152 152 148 148 148 142 137 131 127 124
159 154 148 161 162 144 132 124 117 114 111 108 100 92 97 106 108 113 112 114 116 124 141 146 153 156 159 159 159 160 158 157 157 157 156 154 152 155 153 147 143 139 135
161 159 159 165 159 144 134 135 126 131 125 114 105 91 87 99 106 109 102 109 117 123 128 135 149 161 169 172 172 173 170 165 166 165 162 163 163 164 164 160 156 150 146
158 153 154 154 156 147 141 136 133 119 129 128 103 77 58 72 96 103 110 112 111 126 128 134 145 158 173 183 184 186 182 178 179 178 176 175 175 174 173 171 166 162 161
155 151 146 151 157 159 160 151 141 131 126 129 104 70 32 37 58 71 100 117 121 132 132 141 148 154 172 190 192 194 191 189 189 188 189 185 182 182 180 182 178 173 171
154 156 155 170 167 154 152 161 148 145 147 154 136 123 98 10 10 6 10 131 153 140 141 153 156 157 169 178 191 197 199 197 199 196 196 192 191 193 194 192 190 185 183
134 141 160 163 173 171 173 175 172 163 172 191 151 152 161 196 256 318 324 225 180 167 176 168 173 180 185 184 190 199 204 203 205 204 202 203 205 206 208 206 203 200 197
115 142 159 163 172 174 176 186 183 174 171 184 186 162 156 155 162 196 298 292 244 216 208 204 194 196 198 195 198 203 207 208 211 213 213 213 215 218 220 218 213 211 209
133 151 163 166 180 186 187 189 186 180 180 185 182 165 122 99 128 174 231 260 278 259 226 211 208 210 208 203 204 209 214 217 220 223 225 227 226 224 223 223 214 211 215
229 189 176 183 193 195 194 194 195 191 192 185 183 177 176 173 184 177 205 231 245 266 257 229 214 214 215 209 208 212 214 219 223 229 229 233 234 234 231 231 224 219 215
243 223 199 196 198 208 202 195 194 197 193 190 194 204 199 204 184 177 178 207 242 273 271 254 225 219 221 215 216 217 217 220 225 232 235 237 237 237 239 241 238 226 218
229 223 197 192 199 197 198 194 197 200 197 203 210 207 208 210 192 183 178 175 209 261 264 255 250 222 221 218 222 220 222 225 229 235 240 241 236 231 236 242 242 227 222
207 182 183 187 205 206 197 191 205 210 202 208 215 213 214 213 202 193 184 185 181 217 242 238 239 233 220 220 224 219 222 229 227 232 238 241 235 233 241 243 243 228 224
134 165 198 205 210 208 208 204 210 211 208 220 217 214 221 218 209 199 202 205 202 205 235 234 228 240 219 224 225 222 226 230 231 234 237 239 234 231 233 237 240 238 232
221 203 212 213 213 213 211 209 215 203 208 220 223 220 227 215 208 209 207 206 209 205 234 253 238 242 212 221 222 221 225 225 230 233 235 236 235 234 235 237 238 241 236
243 226 210 206 205 210 212 215 217 215 213 218 223 223 229 219 217 215 212 219 220 214 216 242 251 242 234 223 215 218 224 226 228 232 233 239 241 239 238 237 239 242 239
240 239 199 201 212 215 218 221 218 218 218 219 219 222 226 216 223 225 219 220 222 222 217 219 242 252 253 241 228 248 230 227 236 234 236 241 243 246 246 243 242 243 242
204 258 245 221 218 220 225 226 220 218 220 225 224 224 224 220 223 218 220 222 214 213 212 206 226 244 250 242 195 233 261 243 245 240 243 245 249 252 251 246 244 245 245
92 245 267 260 243 218 228 225 219 221 218 228 234 231 232 234 232 221 222 217 206 211 210 216 227 233 231 219 220 212 237 258 272 243 240 244 246 249 252 252 249 246 247
353 2 317 280 273 278 278 239 219 219 222 220 233 243 241 236 241 235 230 218 207 208 213 216 227 227 234 228 212 209 207 226 267 241 209 253 228 246 249 251 253 253 252
340 347 322 305 292 289 291 251 234 223 226 227 226 233 245 247 239 229 233 232 230 228 217 213 224 230 227 219 204 211 213 221 237 225 207 254 239 250 252 253 258 257 253
317 285 289 289 297 309 302 270 237 225 228 234 230 226 225 238 232 222 221 235 248 251 239 230 228 232 228 212 206 211 214 228 263 243 200 239 246 250 261 256 257 256 251
319 297 293 298 298 305 318 292 255 234 237 247 239 232 222 231 247 235 220 232 254 270 264 246 246 244 238 227 208 184 192 205 251 254 213 216 241 267 276 264 254 254 250
290 295 301 286 276 283 302 289 250 229 236 247 252 250 250 250 249 233 225 230 241 256 255 260 258 255 242 230 216 209 202 211 233 243 212 197 219 228 277 265 249 248 250
Height
1522 1523 1524 1525 1526 1527 1528 1529 1530 1532 1534 1535 1537 1538 1540 1542 1543 1545 1546 1547 1548 1549 1550 1551 1552 1553 1554 1555 1556 1557 1557 1558 1559 1560 1561 1561 1562 1563 1563 1564 1564 1565 1565
1520 1521 1522 1523 1524 1525 1527 1528 1529 1530 1532 1534 1535 1537 1539 1540 1542 1543 1544 1546 1547 1548 1549 1550 1551 1552 1553 1554 1555 1555 1556 1557 1558 1559 1560 1560 1561 1562 1563 1563 1564 1564 1564
1518 1519 1520 1521 1523 1524 1525 1526 1528 1529 1531 1532 1534 1535 1537 1539 1540 1541 1543 1544 1546 1547 1548 1549 1550 1551 1552 1553 1553 1554 1555 1556 1557 1558 1559 1559 1560 1561 1562 1562 1563 1563 1563
1516 1517 1518 1520 1521 1522 1523 1525 1526 1527 1529 1530 1532 1534 1535 1537 1538 1540 1541 1542 1544 1545 1546 1547 1548 1549 1550 1551 1552 1553 1553 1554 1555 1556 1557 1558 1559 1560 1560 1561 1562 1562 1562
1514 1515 1516 1517 1519 1520 1521 1523 1524 1526 1527 1528 1530 1532 1534 1535 1537 1538 1539 1541 1542 1544 1545 1546 1546 1547 1549 1550 1550 1551 1552 1552 1553 1555 1555 1556 1557 1558 1558 1559 1560 1560 1561
1512 1513 1514 1515 1517 1518 1519 1521 1523 1524 1525 1527 1528 1530 1532 1533 1535 1536 1537 1539 1540 1541 1543 1544 1545 1546 1547 1548 1548 1549 1550 1551 1551 1552 1553 1554 1555 1556 1556 1557 1558 1558 1559
1509 1510 1511 1513 1514 1515 1517 1519 1521 1522 1523 1525 1526 1528 1530 1531 1532 1534 1535 1536 1538 1539 1540 1541 1542 1543 1544 1545 1546 1547 1547 1548 1549 1550 1551 1552 1552 1553 1554 1555 1555 1556 1557
1506 1507 1509 1510 1511 1513 1514 1516 1518 1519 1521 1523 1524 1525 1527 1529 1529 1531 1532 1534 1535 1536 1537 1538 1539 1540 1541 1542 1543 1544 1545 1545 1546 1547 1548 1549 1550 1551 1551 1552 1553 1554 1554
1503 1504 1506 1507 1508 1509 1511 1513 1515 1516 1517 1520 1522 1523 1525 1525 1527 1528 1529 1531 1532 1533 1534 1535 1536 1537 1538 1539 1540 1541 1542 1542 1543 1544 1545 1546 1547 1548 1549 1549 1550 1550 1551
1501 1502 1503 1504 1505 1507 1508 1510 1512 1514 1515 1516 1518 1520 1522 1522 1523 1524 1526 1527 1529 1530 1531 1532 1533 1534 1535 1536 1537 1537 1538 1539 1540 1541 1542 1543 1544 1545 1546 1546 1547 1547 1548
1498 1499 1500 1501 1503 1504 1505 1507 1509 1510 1512 1513 1514 1516 1517 1519 1520 1520 1521 1523 1524 1526 1527 1528 1529 1530 1531 1532 1533 1534 1535 1536 1536 1537 1538 1539 1540 1541 1542 1543 1543 1544 1545
1495 1496 1497 1498 1499 1501 1502 1504 1505 1507 1508 1510 1511 1513 1514 1515 1516 1517 1518 1518 1520 1521 1523 1524 1525 1526 1527 1528 1529 1530 1531 1532 1532 1533 1534 1535 1536 1537 1538 1539 1540 1540 1541
1491 1492 1493 1495 1496 1498 1499 1501 1502 1503 1505 1506 1508 1509 1511 1512 1513 1514 1515 1515 1516 1517 1519 1520 1521 1522 1523 1524 1525 1526 1527 1528 1528 1529 1531 1531 1532 1533 1534 1535 1536 1536 1536
1489 1490 1491 1492 1493 1495 1496 1498 1498 1500 1501 1503 1504 1506 1507 1508 1510 1511 1512 1513 1513 1513 1514 1515 1517 1518 1519 1520 1521 1522 1522 1523 1524 1525 1526 1527 1528 1529 1530 1531 1532 1532 1532
1486 1487 1488 1489 1490 1492 1493 1494 1495 1496 1497 1499 1501 1502 1503 1504 1506 1507 1509 1510 1511 1510 1510 1511 1513 1513 1515 1515 1516 1517 1518 1519 1520 1521 1522 1523 1524 1524 1525 1526 1527 1527 1527
1484 1485 1485 1486 1487 1488 1489 1490 1491 1492 1494 1495 1497 1498 1499 1500 1502 1503 1505 1506 1507 1508 1507 1507 1509 1509 1510 1511 1512 1513 1514 1514 1515 1516 1517 1518 1519 1519 1520 1521 1522 1522 1522
1481 1482 1482 1483 1484 1485 1486 1487 1488 1489 1490 1491 1492 1494 1495 1496 1498 1499 1500 1501 1502 1503 1503 1503 1505 1505 1506 1507 1507 1508 1509 1510 1510 1511 1512 1513 1514 1514 1515 1516 1516 1517 1517
1478 1479 1479 1480 1480 1481 1482 1483 1484 1485 1486 1487 1488 1490 1491 1492 1493 1495 1496 1497 1498 1499 1499 1499 1500 1501 1502 1502 1503 1503 1504 1505 1506 1507 1507 1508 1509 1509 1510 1510 1511 1511 1512
1476 1476 1476 1477 1477 1478 1479 1479 1480 1481 1482 1483 1484 1485 1487 1488 1489 1490 1491 1492 1493 1494 1495 1495 1495 1496 1497 1498 1498 1499 1499 1500 1501 1502 1502 1503 1504 1504 1504 1505 1505 1506 1507
1473 1473 1473 1474 1474 1475 1475 1476 1477 1478 1478 1479 1480 1481 1482 1483 1484 1485 1486 1487 1489 1490 1490 1491 1491 1492 1492 1493 1494 1494 1494 1495 1496 1497 1497 1498 1499 1499 1499 1500 1500 1501 1502
1471 1471 1471 1471 1471 1471 1472 1473 1473 1474 1475 1475 1476 1477 1478 1479 1480 1481 1482 1483 1484 1485 1485 1486 1486 1487 1487 1488 1489 1489 1490 1490 1491 1492 1492 1492 1493 1493 1494 1494 1495 1496 1496
1468 1468 1468 1468 1468 1468 1469 1469 1470 1470 1471 1471 1472 1473 1474 1475 1476 1477 1478 1479 1480 1480 1480 1481 1481 1482 1482 1483 1484 1485 1485 1485 1485 1487 1486 1487 1488 1488 1488 1489 1489 1490 1490
1466 1465 1465 1465 1465 1465 1466 1466 1467 1467 1467 1468 1468 1469 1470 1470 1471 1472 1473 1474 1475 1475 1476 1477 1476 1477 1478 1478 1479 1480 1480 1480 1480 1481 1482 1480 1482 1482 1483 1483 1483 1484 1484
1463 1462 1462 1462 1462 1462 1463 1463 1464 1464 1464 1464 1465 1465 1466 1466 1467 1468 1469 1469 1469 1470 1471 1471 1472 1472 1473 1474 1474 1475 1475 1475 1475 1476 1477 1475 1476 1476 1477 1477 1477 1478 1478
1460 1460 1459 1459 1459 1459 1460 1460 1461 1460 1460 1460 1461 1461 1462 1462 1463 1464 1464 1464 1464 1465 1466 1466 1467 1467 1468 1469 1469 1470 1469 1470 1469 1470 1471 1471 1470 1470 1470 1470 1471 1471 1471
1457 1457 1457 1457 1456 1456 1457 1457 1457 1457 1457 1457 1457 1457 1458 1458 1459 1459 1459 1459 1459 1459 1460 1461 1461 1462 1462 1463 1464 1464 1464 1465 1464 1464 1465 1466 1465 1466 1464 1463 1465 1465 1465